Погода в Амахаи

Индонезия     3°19′26″S   128°56′27″E
темп.,
°C
ветер,
м/с
пор.,
м/с
влажн.,
%
обл.,
%
осадки,
мм/ч
давл.,
гПа
погр.,
м
2 марта, вт
вт200:00+25ссв2277100 0.3 101174
03:00+24с2382100 0.8 100994
06:00+24ссв2285100 0.6 101091
09:00+25с2386100 1.1 1012160
12:00+25с5979100 0.2 1011641
15:00+25с51078100 0.2 1009822
18:00+25ссв41176100 0.0 1009736
21:00+24ссв3577100 0.0 1011221
3 марта, ср
ср300:00+24с2278100 0.0 101184
03:00+24с3581100 0.0 1009195
06:00+24с2282100 0.0 1010117
09:00+27ссз1269100 0.0 1011348
12:00+31юз235399 0.0 10111290
15:00+30ююз226590 1.4 1008681
18:00+28всв118075 3.1 1009135
21:00+25ссв228788 3.3 101176
4 марта, чт
чт400:00+24ссв2287100 0.1 101167
03:00+23с2287100 0.1 100963
06:00+23с2286100 0.0 100958
09:00+28ссз116988 0.0 1011361
12:00+32юз125281 0.1 10111182
15:00+29зюз017190 2.4 1009486
18:00+27ссв1281100 3.6 100898
21:00+25ссв2287100 4.9 101060
5 марта, пт
пт500:00+24с2288100 0.0 101160
03:00+24ссв228496 0.0 100963
06:00+24ссв2279100 0.0 100958
09:00+28ссз116477 0.0 1011318
12:00+32ююз22510 0.1 1010989
15:00+30з11674 3.9 1008563
18:00+27ссв118297 5.2 100882
21:00+25с118598 8.4 101044
6 марта, сб
сб600:00+24ссв2288100 0.3 101064
03:00+24с2386100 0.5 100993
06:00+24с2386100 0.1 100999
09:00+26с228198 0.1 1011159
12:00+31з126362 1.3 1010812
15:00+28зюз127755 6.3 1008354
18:00+26ссз2285100 4.9 100889
21:00+24ссв2390100 6.3 1010136